KHAYYAM (53370 NORAD) Tracking and Keplerian Element Data

This shows tracking and keplerian element data for the satellite.

Feedback or suggestion? Click here.




ElementValue
Catalog53370
NameKHAYYAM
Epoch Orbit1587
Epoch Day325.3571
Epoch Year2022
RAAN226.0008
Inclination97.4298
Eccentricity0.0001842
Argument of Perigee86.6165
Mean Anonmoly50.821
Mean Motion15.24835441
Decay Rate-0.00071894
L11 53370U 22096A 22325.35710000 -.00071894 00000+0 -29233-2 0 9998
L22 53370 97.4298 226.0008 0001842 86.6165 50.8210 15.24835441 15878



Live tracking and technical data element details for KHAYYAM (NORAD 53370). KHAYYAM can be tracked NOW for your location showing map with azimuth and elevation plus other details from your city location.







IsCatalogInMostPopularTable: catalog: 53370, numindb: 5
Update: records affected: 1



GetName: 53370 KHAYYAM

Hit Count: updated at: Tue, 29 Nov 2022 01:14:29 GMT